Terug naar catalogus

OPS 7245

ActiefNavigatieLEO
NORAD 11720·PAYLOAD·🇺🇸 United States

Gelanceerd Mar 3, 1980 vanaf Vandenberg Space Force Base

Loading…

Volgende Passages (komende 24 uur)

TLE

VerouderdSource: Space-Track

Epoch: Jun 4, 1980, 10:36 UTC

1 11720U 80019  A 80156.44170566  .00000027 +00000-0 +02391-4 0  9990
2 11720 063.4783 147.0798 0072826 154.3421 206.1245 13.39685345012465

Volg OPS 7245 in realtime met AllMySat

Download on the App Store